Location: Gälforsberget
(66.6500°N, 22.4167°E)
Time: 18:56:13
(UTC+00:00)

ASTEX 1 - Pass Details

Date: 11 April 2026
Orbit: 712 x 733 km, 92.7° (Epoch: 19 May)

Event Time Altitude Azimuth Distance (km) Brightness Sun altitude
Exits shadow 19:11:36 - 162° (SSE) 2,785 5.9 -6.7°
Reaches altitude 10° 19:13:01 10° 161° (SSE) 2,217 5.4 -6.8°
Maximum altitude 19:17:54 74° 78° (ENE) 764 3.4 -7.1°
Drops below altitude 10° 19:22:51 10° 354° (N) 2,243 6.7 -7.5°
Sets 19:25:10 0° 353° (N) 3,172 7.6 -7.7°
